User: anonymous   Login
Location: Unspecified
(0.0000°N, 0.0000°E)
Time: 04:47:52
(UTC+00:00)
Language:

Explorer 7 - Orbit

View from above orbital plane
View from above orbital plane
View from above satellite
View from above satellite

Ground track
Ground track

The orbit data is extracted from the following two-line orbital elements,

1 00022U 59009A   18020.54238337  .00000143  00000-0  34347-4 0  9996
2 00022  50.2836 263.7719 0141271 142.4162 218.6760 14.94416171 93854
Epoch (UTC): 20 January 2018 13:01:01
Eccentricity: 0.0141271
inclination: 50.2836°
perigee height: 486 km
apogee height: 682 km
right ascension of ascending node: 263.7719°
argument of perigee: 142.4162°
revolutions per day: 14.94416171
mean anomaly at epoch: 218.6760°
orbit number at epoch: 9385

The dashed part of the orbit path shows where the satellite is in the earth's shadow,  

DLR